MQT5033 LOWI-EDDL

Flight info

Callsign MQT5033
Flight time 2h 5m
Altitude 14000
Route MOGTI P66 DITBA DCT ETAGO Z3 EBATU Z41 ABUMO N850 GISEM Z505 ARPEG Z850 ADEMI T854 DOMUX DOMUX1A
Aircraft AEST/L-SBDFGRY/S

Departure

Time 2026-05-07 21:40
Airport Innsbruck Airport (LOWI)

Arrival

Time 2026-05-07 23:46
Airport Düsseldorf Airport (EDDL)
Time Latitude Longitude Altitude Speed Heading
2026-05-07 21:20 47.25939 11.35370 1897 ft 0 kts 266°
2026-05-07 21:37 47.25939 11.35368 1897 ft 2 kts 266°
2026-05-07 21:37 47.25938 11.35348 1895 ft 0 kts 266°
2026-05-07 21:38 47.25937 11.35323 1898 ft 0 kts 270°
2026-05-07 21:38 47.25937 11.35314 1892 ft 6 kts 270°
2026-05-07 21:38 47.25938 11.35288 1900 ft 1 kts 287°
2026-05-07 21:38 47.25963 11.35280 1895 ft 0 kts 15°
2026-05-07 21:39 47.25981 11.35281 1901 ft 9 kts 353°
2026-05-07 21:39 47.26091 11.35256 1902 ft 19 kts 334°
2026-05-07 21:39 47.26103 11.35144 1902 ft 11 kts 262°
2026-05-07 21:40 47.26050 11.34663 1901 ft 84 kts 260°
2026-05-07 21:40 47.25922 11.33677 2049 ft 105 kts 258°
2026-05-07 21:40 47.25744 11.32634 2542 ft 101 kts 261°
2026-05-07 21:40 47.25661 11.31572 2942 ft 109 kts 267°
2026-05-07 21:41 47.25603 11.30482 3371 ft 105 kts 266°
2026-05-07 21:41 47.25537 11.29381 3670 ft 114 kts 264°
2026-05-07 21:41 47.25406 11.28137 3877 ft 127 kts 261°
2026-05-07 21:41 47.25240 11.26871 4242 ft 125 kts 267°
2026-05-07 21:42 47.25405 11.25593 4466 ft 134 kts 295°
2026-05-07 21:42 47.25813 11.24387 4858 ft 126 kts 291°
2026-05-07 21:42 47.26095 11.23175 5156 ft 129 kts 286°
2026-05-07 21:42 47.26446 11.21927 5399 ft 132 kts 295°
2026-05-07 21:43 47.26806 11.20720 5780 ft 127 kts 294°
2026-05-07 21:43 47.27218 11.19538 6035 ft 134 kts 296°
2026-05-07 21:43 47.27650 11.18329 6413 ft 130 kts 295°
2026-05-07 21:43 47.28086 11.17171 6773 ft 131 kts 298°
2026-05-07 21:44 47.28458 11.15912 7034 ft 136 kts 285°
2026-05-07 21:44 47.28663 11.14573 7410 ft 132 kts 285°
2026-05-07 21:44 47.29051 11.13330 7679 ft 136 kts 297°
2026-05-07 21:44 47.29485 11.12092 8000 ft 135 kts 294°
2026-05-07 21:45 47.29871 11.10839 8299 ft 135 kts 292°
2026-05-07 21:45 47.30234 11.09548 8555 ft 137 kts 289°
2026-05-07 21:45 47.30466 11.08193 8829 ft 138 kts 274°
2026-05-07 21:45 47.30508 11.06782 9111 ft 136 kts 273°
2026-05-07 21:46 47.30547 11.05396 9384 ft 136 kts 273°
2026-05-07 21:46 47.30530 11.03998 9575 ft 140 kts 264°
2026-05-07 21:46 47.30398 11.02581 9847 ft 138 kts 263°
2026-05-07 21:46 47.30269 11.01182 10091 ft 139 kts 266°
2026-05-07 21:47 47.30207 10.99744 10291 ft 141 kts 268°
2026-05-07 21:47 47.30188 10.98309 10542 ft 139 kts 271°
2026-05-07 21:47 47.30159 10.96873 10739 ft 142 kts 266°
2026-05-07 21:47 47.30064 10.95420 10947 ft 142 kts 267°
2026-05-07 21:48 47.30024 10.93978 11168 ft 141 kts 269°
2026-05-07 21:48 47.29990 10.92523 11343 ft 143 kts 269°
2026-05-07 21:48 47.30000 10.91052 11531 ft 144 kts 270°
2026-05-07 21:48 47.29922 10.89585 11707 ft 144 kts 263°
2026-05-07 21:49 47.29758 10.88129 11883 ft 144 kts 264°
2026-05-07 21:49 47.29661 10.86647 12050 ft 146 kts 268°
2026-05-07 21:49 47.29624 10.85157 12252 ft 145 kts 270°
2026-05-07 21:49 47.29714 10.83680 12381 ft 149 kts 290°
2026-05-07 21:50 47.30342 10.82404 12382 ft 158 kts 317°
2026-05-07 21:50 47.31203 10.81501 12727 ft 146 kts 322°
2026-05-07 21:50 47.32031 10.80621 12846 ft 152 kts 320°
2026-05-07 21:50 47.32880 10.79631 12918 ft 156 kts 316°
2026-05-07 21:51 47.33623 10.78527 13156 ft 148 kts 312°
2026-05-07 21:51 47.34428 10.77532 13216 ft 155 kts 320°
2026-05-07 21:51 47.35268 10.76511 13344 ft 155 kts 316°
2026-05-07 21:51 47.36054 10.75448 13549 ft 152 kts 314°
2026-05-07 21:52 47.36819 10.74363 13664 ft 154 kts 313°
2026-05-07 21:52 47.37583 10.73251 13791 ft 154 kts 314°
2026-05-07 21:52 47.38395 10.72224 13936 ft 154 kts 319°
2026-05-07 21:52 47.39254 10.71213 13945 ft 162 kts 320°
2026-05-07 21:53 47.40204 10.70268 13937 ft 168 kts 324°
2026-05-07 21:53 47.41194 10.69312 13945 ft 172 kts 323°
2026-05-07 21:53 47.42199 10.68315 13949 ft 176 kts 323°
2026-05-07 21:53 47.43222 10.67289 13949 ft 179 kts 323°
2026-05-07 21:54 47.44260 10.66241 13942 ft 182 kts 323°
2026-05-07 21:54 47.45312 10.65184 13947 ft 184 kts 323°
2026-05-07 21:54 47.46372 10.64122 13943 ft 184 kts 323°
2026-05-07 21:54 47.47431 10.63057 13945 ft 184 kts 323°
2026-05-07 21:55 47.48485 10.61994 13940 ft 183 kts 323°
2026-05-07 21:55 47.49531 10.60936 13940 ft 181 kts 322°
2026-05-07 21:55 47.50567 10.59879 13938 ft 181 kts 322°
2026-05-07 21:55 47.51598 10.58825 13942 ft 180 kts 322°
2026-05-07 21:56 47.52624 10.57775 13944 ft 179 kts 322°
2026-05-07 21:56 47.53646 10.56729 13943 ft 178 kts 322°
2026-05-07 21:56 47.54665 10.55687 13942 ft 178 kts 322°
2026-05-07 21:56 47.55678 10.54646 13945 ft 177 kts 322°
2026-05-07 21:57 47.56688 10.53608 13945 ft 177 kts 322°
2026-05-07 21:57 47.57687 10.52582 13943 ft 177 kts 322°
2026-05-07 21:57 47.58695 10.51544 13944 ft 176 kts 322°
2026-05-07 21:57 47.59701 10.50501 13943 ft 176 kts 322°
2026-05-07 21:58 47.60705 10.49457 13945 ft 176 kts 322°
2026-05-07 21:58 47.61711 10.48414 13945 ft 176 kts 322°
2026-05-07 21:58 47.62718 10.47370 13945 ft 177 kts 322°
2026-05-07 21:58 47.63725 10.46328 13943 ft 177 kts 322°
2026-05-07 21:59 47.64731 10.45286 13944 ft 176 kts 322°
2026-05-07 21:59 47.65737 10.44245 13944 ft 176 kts 322°
2026-05-07 21:59 47.66743 10.43203 13944 ft 176 kts 322°
2026-05-07 21:59 47.67749 10.42161 13945 ft 176 kts 322°
2026-05-07 22:00 47.68755 10.41118 13945 ft 177 kts 322°
2026-05-07 22:00 47.69762 10.40072 13948 ft 177 kts 322°
2026-05-07 22:00 47.70769 10.39025 13944 ft 177 kts 322°
2026-05-07 22:00 47.71776 10.37978 13946 ft 177 kts 322°
2026-05-07 22:01 47.72784 10.36931 13937 ft 177 kts 322°
2026-05-07 22:01 47.73791 10.35885 13943 ft 176 kts 322°
2026-05-07 22:01 47.74796 10.34841 13943 ft 176 kts 322°
2026-05-07 22:01 47.75821 10.33837 13944 ft 177 kts 324°
2026-05-07 22:02 47.76866 10.32875 13943 ft 177 kts 326°
2026-05-07 22:02 47.77917 10.31926 13943 ft 177 kts 326°
2026-05-07 22:02 47.78969 10.30978 13945 ft 177 kts 326°
2026-05-07 22:02 47.80020 10.30028 13944 ft 177 kts 326°
2026-05-07 22:03 47.81068 10.29073 13944 ft 177 kts 325°
2026-05-07 22:03 47.82114 10.28114 13944 ft 177 kts 325°
2026-05-07 22:03 47.83160 10.27152 13941 ft 177 kts 325°
2026-05-07 22:03 47.84205 10.26189 13945 ft 177 kts 325°
2026-05-07 22:04 47.85249 10.25225 13944 ft 177 kts 325°
2026-05-07 22:04 47.86295 10.24260 13943 ft 177 kts 325°
2026-05-07 22:04 47.87341 10.23293 13941 ft 177 kts 325°
2026-05-07 22:04 47.88371 10.22341 13944 ft 177 kts 325°
2026-05-07 22:05 47.89414 10.21377 13942 ft 177 kts 325°
2026-05-07 22:05 47.90460 10.20408 13943 ft 177 kts 325°
2026-05-07 22:05 47.91505 10.19439 13940 ft 177 kts 325°
2026-05-07 22:05 47.92550 10.18471 13939 ft 177 kts 325°
2026-05-07 22:06 47.93597 10.17500 13936 ft 177 kts 325°
2026-05-07 22:06 47.94641 10.16532 13946 ft 177 kts 325°
2026-05-07 22:06 47.95684 10.15565 13947 ft 177 kts 325°
2026-05-07 22:06 47.96727 10.14596 13944 ft 177 kts 325°
2026-05-07 22:07 47.97770 10.13627 13942 ft 177 kts 325°
2026-05-07 22:07 47.98813 10.12657 13944 ft 177 kts 325°
2026-05-07 22:07 47.99856 10.11687 13944 ft 177 kts 325°
2026-05-07 22:07 48.00900 10.10717 13944 ft 177 kts 325°
2026-05-07 22:08 48.01943 10.09745 13942 ft 177 kts 325°
2026-05-07 22:08 48.02986 10.08773 13943 ft 177 kts 325°
2026-05-07 22:08 48.04028 10.07803 13943 ft 176 kts 325°
2026-05-07 22:08 48.05069 10.06833 13948 ft 176 kts 325°
2026-05-07 22:09 48.06109 10.05862 13944 ft 176 kts 325°
2026-05-07 22:09 48.07150 10.04890 13946 ft 176 kts 325°
2026-05-07 22:09 48.08192 10.03918 13944 ft 177 kts 325°
2026-05-07 22:09 48.09234 10.02945 13943 ft 177 kts 325°
2026-05-07 22:10 48.10275 10.01972 13943 ft 177 kts 325°
2026-05-07 22:10 48.11317 10.00999 13945 ft 177 kts 325°
2026-05-07 22:10 48.12359 10.00024 13943 ft 177 kts 325°
2026-05-07 22:10 48.13403 9.99048 13943 ft 177 kts 325°
2026-05-07 22:11 48.14446 9.98072 13945 ft 177 kts 325°
2026-05-07 22:11 48.15489 9.97095 13944 ft 177 kts 325°
2026-05-07 22:11 48.16532 9.96118 13942 ft 177 kts 325°
2026-05-07 22:11 48.17573 9.95141 13943 ft 177 kts 325°
2026-05-07 22:12 48.18615 9.94163 13944 ft 177 kts 325°
2026-05-07 22:12 48.19643 9.93198 13946 ft 177 kts 325°
2026-05-07 22:12 48.20685 9.92220 13943 ft 177 kts 325°
2026-05-07 22:12 48.21727 9.91241 13943 ft 177 kts 325°
2026-05-07 22:13 48.22775 9.90276 13945 ft 177 kts 326°
2026-05-07 22:13 48.23837 9.89340 13943 ft 177 kts 327°
2026-05-07 22:13 48.24904 9.88415 13943 ft 177 kts 327°
2026-05-07 22:13 48.25972 9.87493 13943 ft 177 kts 327°
2026-05-07 22:14 48.27039 9.86567 13943 ft 177 kts 327°
2026-05-07 22:14 48.28106 9.85640 13943 ft 177 kts 327°
2026-05-07 22:14 48.29171 9.84710 13943 ft 177 kts 327°
2026-05-07 22:14 48.30237 9.83779 13941 ft 177 kts 327°
2026-05-07 22:15 48.31302 9.82846 13945 ft 177 kts 327°
2026-05-07 22:15 48.32366 9.81912 13944 ft 177 kts 327°
2026-05-07 22:15 48.33429 9.80978 13941 ft 177 kts 327°
2026-05-07 22:15 48.34493 9.80042 13936 ft 177 kts 327°
2026-05-07 22:16 48.35556 9.79107 13942 ft 177 kts 327°
2026-05-07 22:16 48.36619 9.78172 13941 ft 177 kts 327°
2026-05-07 22:16 48.37681 9.77236 13944 ft 177 kts 327°
2026-05-07 22:16 48.38745 9.76298 13946 ft 178 kts 327°
2026-05-07 22:17 48.39807 9.75361 13942 ft 176 kts 327°
2026-05-07 22:17 48.40868 9.74428 13945 ft 177 kts 327°
2026-05-07 22:17 48.41931 9.73492 13943 ft 177 kts 327°
2026-05-07 22:17 48.42994 9.72554 13943 ft 177 kts 326°
2026-05-07 22:18 48.44056 9.71615 13941 ft 177 kts 326°
2026-05-07 22:18 48.46183 9.69736 13942 ft 177 kts 327°
2026-05-07 22:18 48.47246 9.68797 13944 ft 177 kts 327°
2026-05-07 22:19 48.48312 9.67855 13942 ft 178 kts 326°
2026-05-07 22:19 48.49363 9.66924 13942 ft 178 kts 326°
2026-05-07 22:19 48.50083 9.66286 13945 ft 178 kts 326°
2026-05-07 22:19 48.51493 9.65035 13945 ft 178 kts 326°
2026-05-07 22:20 48.52559 9.64090 13941 ft 178 kts 326°
2026-05-07 22:20 48.53625 9.63144 13942 ft 178 kts 326°
2026-05-07 22:20 48.54689 9.62200 13943 ft 177 kts 326°
2026-05-07 22:20 48.55408 9.61560 13943 ft 178 kts 326°
2026-05-07 22:21 48.56473 9.60612 13943 ft 178 kts 326°
2026-05-07 22:21 48.57539 9.59664 13943 ft 178 kts 326°
2026-05-07 22:21 48.58604 9.58714 13945 ft 178 kts 326°
2026-05-07 22:21 48.59672 9.57764 13943 ft 178 kts 326°
2026-05-07 22:22 48.60739 9.56813 13943 ft 178 kts 326°
2026-05-07 22:22 48.61807 9.55863 13945 ft 178 kts 326°
2026-05-07 22:22 48.62874 9.54912 13942 ft 178 kts 326°
2026-05-07 22:22 48.63941 9.53961 13941 ft 178 kts 326°
2026-05-07 22:23 48.65007 9.53010 13941 ft 178 kts 326°
2026-05-07 22:23 48.66071 9.52058 13944 ft 177 kts 326°
2026-05-07 22:23 48.67133 9.51109 13946 ft 177 kts 326°
2026-05-07 22:23 48.68196 9.50159 13945 ft 177 kts 326°
2026-05-07 22:24 48.69244 9.49221 13942 ft 177 kts 326°
2026-05-07 22:24 48.70306 9.48271 13942 ft 177 kts 326°
2026-05-07 22:24 48.71367 9.47321 13944 ft 177 kts 326°
2026-05-07 22:24 48.72432 9.46378 13944 ft 178 kts 328°
2026-05-07 22:25 48.73542 9.45556 13941 ft 178 kts 333°
2026-05-07 22:25 48.74676 9.44807 13942 ft 178 kts 333°
2026-05-07 22:25 48.75814 9.44074 13942 ft 178 kts 334°
2026-05-07 22:25 48.76958 9.43344 13942 ft 179 kts 334°
2026-05-07 22:26 48.78103 9.42614 13942 ft 179 kts 334°
2026-05-07 22:26 48.79248 9.41882 13945 ft 179 kts 334°
2026-05-07 22:26 48.80395 9.41145 13942 ft 179 kts 334°
2026-05-07 22:26 48.81542 9.40407 13947 ft 179 kts 334°
2026-05-07 22:27 48.82688 9.39668 13941 ft 179 kts 334°
2026-05-07 22:27 48.83829 9.38928 13941 ft 178 kts 334°
2026-05-07 22:27 48.84972 9.38192 13943 ft 179 kts 334°
2026-05-07 22:27 48.86116 9.37455 13942 ft 179 kts 334°
2026-05-07 22:28 48.87261 9.36715 13937 ft 179 kts 334°
2026-05-07 22:28 48.88405 9.35975 13947 ft 179 kts 334°
2026-05-07 22:28 48.89549 9.35233 13942 ft 179 kts 334°
2026-05-07 22:28 48.90693 9.34487 13943 ft 179 kts 332°
2026-05-07 22:29 48.91736 9.33474 13941 ft 178 kts 316°
2026-05-07 22:29 48.92644 9.32212 13946 ft 176 kts 315°
2026-05-07 22:29 48.93556 9.30971 13940 ft 176 kts 316°
2026-05-07 22:29 48.94471 9.29732 13941 ft 176 kts 316°
2026-05-07 22:30 48.95383 9.28494 13941 ft 176 kts 315°
2026-05-07 22:30 48.96292 9.27252 13941 ft 176 kts 315°
2026-05-07 22:30 48.97199 9.26008 13941 ft 175 kts 315°
2026-05-07 22:30 48.98104 9.24763 13945 ft 175 kts 315°
2026-05-07 22:31 48.99007 9.23517 13943 ft 175 kts 315°
2026-05-07 22:31 48.99911 9.22270 13941 ft 175 kts 315°
2026-05-07 22:31 49.00814 9.21024 13942 ft 175 kts 315°
2026-05-07 22:31 49.01718 9.19777 13945 ft 175 kts 315°
2026-05-07 22:32 49.02620 9.18530 13944 ft 175 kts 315°
2026-05-07 22:32 49.03522 9.17283 13942 ft 175 kts 315°
2026-05-07 22:32 49.04424 9.16035 13943 ft 175 kts 315°
2026-05-07 22:32 49.05327 9.14786 13942 ft 175 kts 315°
2026-05-07 22:33 49.06228 9.13539 13942 ft 175 kts 315°
2026-05-07 22:33 49.07131 9.12289 13944 ft 175 kts 315°
2026-05-07 22:33 49.08032 9.11038 13944 ft 175 kts 315°
2026-05-07 22:33 49.08935 9.09787 13942 ft 175 kts 315°
2026-05-07 22:34 49.09837 9.08537 13942 ft 175 kts 315°
2026-05-07 22:34 49.10739 9.07286 13942 ft 175 kts 315°
2026-05-07 22:34 49.11640 9.06035 13942 ft 175 kts 315°
2026-05-07 22:34 49.12541 9.04784 13943 ft 175 kts 315°
2026-05-07 22:35 49.13442 9.03532 13943 ft 175 kts 315°
2026-05-07 22:35 49.14342 9.02281 13945 ft 175 kts 315°
2026-05-07 22:35 49.15244 9.01027 13943 ft 175 kts 315°
2026-05-07 22:35 49.16145 8.99773 13946 ft 175 kts 315°
2026-05-07 22:36 49.17034 8.98537 13946 ft 175 kts 315°
2026-05-07 22:36 49.17936 8.97280 13944 ft 175 kts 315°
2026-05-07 22:36 49.18852 8.96052 13936 ft 175 kts 322°
2026-05-07 22:36 49.19962 8.95308 13946 ft 176 kts 345°
2026-05-07 22:37 49.21193 8.95181 13952 ft 179 kts 358°
2026-05-07 22:37 49.22445 8.95291 13945 ft 181 kts
2026-05-07 22:37 49.23705 8.95478 13945 ft 183 kts
2026-05-07 22:37 49.24970 8.95690 13945 ft 183 kts
2026-05-07 22:38 49.26240 8.95904 13945 ft 184 kts
2026-05-07 22:38 49.27515 8.96110 13941 ft 185 kts
2026-05-07 22:38 49.28792 8.96309 13945 ft 184 kts
2026-05-07 22:38 49.30070 8.96502 13944 ft 185 kts
2026-05-07 22:39 49.31350 8.96689 13943 ft 185 kts
2026-05-07 22:39 49.32632 8.96873 13943 ft 185 kts
2026-05-07 22:39 49.33915 8.97055 13944 ft 185 kts
2026-05-07 22:39 49.35197 8.97237 13944 ft 185 kts
2026-05-07 22:40 49.36479 8.97417 13943 ft 185 kts
2026-05-07 22:40 49.37762 8.97598 13943 ft 185 kts
2026-05-07 22:40 49.39045 8.97779 13943 ft 185 kts
2026-05-07 22:40 49.40328 8.97959 13944 ft 185 kts
2026-05-07 22:41 49.41612 8.98140 13945 ft 185 kts
2026-05-07 22:41 49.42898 8.98319 13944 ft 186 kts
2026-05-07 22:41 49.44184 8.98499 13942 ft 186 kts
2026-05-07 22:41 49.45471 8.98679 13944 ft 186 kts
2026-05-07 22:42 49.46758 8.98861 13943 ft 186 kts
2026-05-07 22:42 49.48027 8.99040 13941 ft 185 kts
2026-05-07 22:42 49.49324 8.99223 13944 ft 185 kts
2026-05-07 22:42 49.50586 8.99400 13945 ft 185 kts
2026-05-07 22:43 49.51859 8.99225 13937 ft 184 kts 339°
2026-05-07 22:43 49.53040 8.98459 13946 ft 181 kts 335°
2026-05-07 22:43 49.54201 8.97783 13939 ft 181 kts 337°
2026-05-07 22:43 49.55388 8.97139 13944 ft 181 kts 337°
2026-05-07 22:44 49.56576 8.96496 13944 ft 181 kts 337°
2026-05-07 22:44 49.57759 8.95846 13942 ft 180 kts 337°
2026-05-07 22:44 49.58937 8.95186 13945 ft 180 kts 336°
2026-05-07 22:44 49.60113 8.94519 13945 ft 180 kts 336°
2026-05-07 22:45 49.61288 8.93845 13943 ft 180 kts 336°
2026-05-07 22:45 49.62460 8.93171 13946 ft 180 kts 336°
2026-05-07 22:45 49.63633 8.92494 13943 ft 180 kts 336°
2026-05-07 22:45 49.64804 8.91818 13944 ft 180 kts 336°
2026-05-07 22:46 49.65977 8.91140 13942 ft 180 kts 336°
2026-05-07 22:46 49.67148 8.90461 13942 ft 180 kts 336°
2026-05-07 22:46 49.68320 8.89781 13948 ft 180 kts 336°
2026-05-07 22:46 49.69494 8.89100 13944 ft 180 kts 336°
2026-05-07 22:47 49.70669 8.88418 13944 ft 181 kts 336°
2026-05-07 22:47 49.71846 8.87735 13943 ft 181 kts 336°
2026-05-07 22:47 49.73024 8.87052 13943 ft 181 kts 336°
2026-05-07 22:47 49.74201 8.86368 13943 ft 181 kts 336°
2026-05-07 22:48 49.75378 8.85684 13942 ft 181 kts 336°
2026-05-07 22:48 49.76578 8.85133 13934 ft 180 kts 350°
2026-05-07 22:48 49.77833 8.85147 13955 ft 182 kts
2026-05-07 22:48 49.79098 8.85345 13944 ft 184 kts
2026-05-07 22:49 49.80368 8.85607 13939 ft 185 kts
2026-05-07 22:49 49.81641 8.85890 13943 ft 185 kts
2026-05-07 22:49 49.82914 8.86175 13942 ft 185 kts
2026-05-07 22:49 49.84190 8.86455 13943 ft 185 kts
2026-05-07 22:50 49.85467 8.86729 13942 ft 185 kts
2026-05-07 22:50 49.86746 8.86997 13940 ft 186 kts
2026-05-07 22:50 49.88027 8.87263 13938 ft 186 kts
2026-05-07 22:50 49.89310 8.87527 13939 ft 186 kts
2026-05-07 22:51 49.90591 8.87789 13939 ft 186 kts
2026-05-07 22:51 49.91873 8.88050 13940 ft 186 kts
2026-05-07 22:51 49.93155 8.88309 13941 ft 186 kts
2026-05-07 22:51 49.94437 8.88561 13940 ft 186 kts
2026-05-07 22:52 49.95719 8.88809 13940 ft 186 kts
2026-05-07 22:52 49.97002 8.89057 13940 ft 186 kts
2026-05-07 22:52 49.98285 8.89306 13940 ft 186 kts
2026-05-07 22:52 49.99568 8.89554 13941 ft 186 kts
2026-05-07 22:53 50.00832 8.89800 13941 ft 186 kts
2026-05-07 22:53 50.02116 8.90050 13940 ft 186 kts
2026-05-07 22:53 50.03398 8.90301 13941 ft 186 kts
2026-05-07 22:53 50.04681 8.90552 13940 ft 186 kts
2026-05-07 22:54 50.05964 8.90803 13940 ft 186 kts
2026-05-07 22:54 50.07248 8.91054 13941 ft 186 kts
2026-05-07 22:54 50.08533 8.91305 13940 ft 186 kts
2026-05-07 22:54 50.09816 8.91558 13942 ft 186 kts
2026-05-07 22:55 50.11099 8.91809 13940 ft 186 kts
2026-05-07 22:55 50.12383 8.92060 13941 ft 186 kts
2026-05-07 22:55 50.13667 8.92298 13944 ft 186 kts
2026-05-07 22:55 50.14955 8.92224 13939 ft 185 kts 349°
2026-05-07 22:56 50.16227 8.91960 13928 ft 184 kts 349°
2026-05-07 22:56 50.17495 8.91702 13941 ft 183 kts 349°
2026-05-07 22:56 50.18760 8.91442 13936 ft 183 kts 349°
2026-05-07 22:56 50.20022 8.91180 13940 ft 183 kts 349°
2026-05-07 22:57 50.21283 8.90916 13941 ft 183 kts 349°
2026-05-07 22:57 50.22543 8.90651 13945 ft 183 kts 349°
2026-05-07 22:57 50.23805 8.90385 13941 ft 183 kts 349°
2026-05-07 22:57 50.25065 8.90118 13941 ft 183 kts 349°
2026-05-07 22:58 50.26325 8.89851 13942 ft 183 kts 349°
2026-05-07 22:58 50.27585 8.89584 13942 ft 183 kts 349°
2026-05-07 22:58 50.28846 8.89321 13942 ft 183 kts 349°
2026-05-07 22:58 50.30107 8.89058 13943 ft 183 kts 349°
2026-05-07 22:59 50.31369 8.88795 13943 ft 183 kts 349°
2026-05-07 22:59 50.32631 8.88531 13943 ft 183 kts 349°
2026-05-07 22:59 50.33892 8.88268 13945 ft 183 kts 349°
2026-05-07 22:59 50.35154 8.88004 13942 ft 183 kts 349°
2026-05-07 23:00 50.36415 8.87740 13943 ft 183 kts 349°
2026-05-07 23:00 50.37661 8.87479 13941 ft 183 kts 349°
2026-05-07 23:00 50.38939 8.87212 13946 ft 183 kts 349°
2026-05-07 23:00 50.40183 8.86950 13942 ft 183 kts 349°
2026-05-07 23:01 50.41445 8.86684 13940 ft 183 kts 349°
2026-05-07 23:01 50.42705 8.86420 13943 ft 183 kts 349°
2026-05-07 23:01 50.43967 8.86154 13938 ft 183 kts 349°
2026-05-07 23:01 50.45229 8.85890 13943 ft 183 kts 349°
2026-05-07 23:02 50.46489 8.85625 13946 ft 183 kts 349°
2026-05-07 23:02 50.47751 8.85357 13945 ft 183 kts 349°
2026-05-07 23:02 50.49014 8.85087 13945 ft 183 kts 349°
2026-05-07 23:02 50.50278 8.84818 13947 ft 183 kts 349°
2026-05-07 23:03 50.51545 8.84550 13944 ft 184 kts 349°
2026-05-07 23:03 50.52812 8.84282 13943 ft 184 kts 349°
2026-05-07 23:03 50.54080 8.84015 13944 ft 184 kts 349°
2026-05-07 23:03 50.55349 8.83747 13941 ft 184 kts 349°
2026-05-07 23:04 50.56620 8.83479 13944 ft 184 kts 349°
2026-05-07 23:04 50.57889 8.83210 13940 ft 184 kts 349°
2026-05-07 23:04 50.59158 8.82942 13943 ft 184 kts 349°
2026-05-07 23:04 50.60427 8.82673 13945 ft 184 kts 349°
2026-05-07 23:05 50.61698 8.82405 13943 ft 184 kts 349°
2026-05-07 23:05 50.62965 8.82108 13947 ft 184 kts 343°
2026-05-07 23:05 50.64099 8.81228 13942 ft 182 kts 317°
2026-05-07 23:05 50.65033 8.79913 13946 ft 179 kts 317°
2026-05-07 23:06 50.65991 8.78654 13942 ft 180 kts 318°
2026-05-07 23:06 50.66957 8.77410 13943 ft 179 kts 318°
2026-05-07 23:06 50.67919 8.76165 13943 ft 179 kts 318°
2026-05-07 23:06 50.68877 8.74912 13943 ft 179 kts 317°
2026-05-07 23:07 50.69829 8.73654 13942 ft 179 kts 317°
2026-05-07 23:07 50.70780 8.72390 13943 ft 179 kts 317°
2026-05-07 23:07 50.71715 8.71142 13944 ft 179 kts 317°
2026-05-07 23:07 50.72664 8.69874 13944 ft 178 kts 317°
2026-05-07 23:08 50.73609 8.68607 13943 ft 178 kts 317°
2026-05-07 23:08 50.74553 8.67341 13942 ft 178 kts 317°
2026-05-07 23:08 50.75496 8.66074 13943 ft 178 kts 317°
2026-05-07 23:08 50.76438 8.64809 13942 ft 178 kts 317°
2026-05-07 23:09 50.77382 8.63543 13942 ft 178 kts 317°
2026-05-07 23:09 50.78324 8.62278 13943 ft 178 kts 317°
2026-05-07 23:09 50.79267 8.61012 13944 ft 178 kts 317°
2026-05-07 23:09 50.79904 8.60156 13943 ft 178 kts 317°
2026-05-07 23:10 50.80848 8.58887 13942 ft 178 kts 317°
2026-05-07 23:10 50.81778 8.57636 13942 ft 178 kts 317°
2026-05-07 23:10 50.82721 8.56365 13943 ft 178 kts 317°
2026-05-07 23:10 50.83666 8.55092 13942 ft 178 kts 317°
2026-05-07 23:11 50.84613 8.53818 13943 ft 179 kts 317°
2026-05-07 23:11 50.85559 8.52543 13942 ft 179 kts 317°
2026-05-07 23:11 50.86504 8.51268 13942 ft 179 kts 317°
2026-05-07 23:11 50.87450 8.49992 13943 ft 179 kts 317°
2026-05-07 23:12 50.88397 8.48715 13944 ft 179 kts 317°
2026-05-07 23:12 50.89345 8.47434 13941 ft 179 kts 317°
2026-05-07 23:12 50.90292 8.46152 13942 ft 179 kts 317°
2026-05-07 23:12 50.91239 8.44869 13943 ft 179 kts 317°
2026-05-07 23:13 50.92185 8.43586 13944 ft 179 kts 317°
2026-05-07 23:13 50.93131 8.42304 13942 ft 179 kts 317°
2026-05-07 23:13 50.94077 8.41024 13942 ft 179 kts 317°
2026-05-07 23:13 50.95024 8.39741 13943 ft 179 kts 317°
2026-05-07 23:14 50.95969 8.38458 13944 ft 179 kts 317°
2026-05-07 23:14 50.96914 8.37175 13942 ft 178 kts 317°
2026-05-07 23:14 50.97859 8.35892 13943 ft 179 kts 317°
2026-05-07 23:14 50.98805 8.34605 13942 ft 179 kts 317°
2026-05-07 23:15 50.99753 8.33318 13943 ft 179 kts 317°
2026-05-07 23:15 51.00700 8.32028 13941 ft 179 kts 317°
2026-05-07 23:15 51.01668 8.30785 13944 ft 179 kts 322°
2026-05-07 23:15 51.02725 8.29729 13942 ft 180 kts 327°
2026-05-07 23:16 51.03814 8.28738 13941 ft 181 kts 328°
2026-05-07 23:16 51.04912 8.27765 13942 ft 181 kts 328°
2026-05-07 23:16 51.06014 8.26798 13944 ft 181 kts 328°
2026-05-07 23:16 51.07115 8.25830 13943 ft 181 kts 328°
2026-05-07 23:17 51.08215 8.24860 13941 ft 181 kts 328°
2026-05-07 23:17 51.09313 8.23888 13942 ft 181 kts 328°
2026-05-07 23:17 51.10398 8.22925 13944 ft 181 kts 328°
2026-05-07 23:17 51.11499 8.21947 13942 ft 182 kts 328°
2026-05-07 23:18 51.12603 8.20965 13940 ft 182 kts 328°
2026-05-07 23:18 51.13706 8.19984 13942 ft 181 kts 328°
2026-05-07 23:18 51.14806 8.19004 13942 ft 181 kts 328°
2026-05-07 23:18 51.15902 8.18026 13944 ft 181 kts 328°
2026-05-07 23:19 51.16999 8.17047 13942 ft 181 kts 328°
2026-05-07 23:19 51.18097 8.16068 13947 ft 181 kts 328°
2026-05-07 23:19 51.19195 8.15089 13946 ft 181 kts 327°
2026-05-07 23:19 51.20111 8.13753 13940 ft 179 kts 298°
2026-05-07 23:20 51.20461 8.11883 13944 ft 177 kts 275°
2026-05-07 23:20 51.20467 8.09927 13938 ft 176 kts 266°
2026-05-07 23:20 51.20361 8.07982 13941 ft 176 kts 264°
2026-05-07 23:20 51.20235 8.06044 13943 ft 176 kts 265°
2026-05-07 23:21 51.20122 8.04107 13942 ft 175 kts 266°
2026-05-07 23:21 51.20031 8.02171 13940 ft 175 kts 266°
2026-05-07 23:21 51.19958 8.00233 13942 ft 175 kts 267°
2026-05-07 23:21 51.19899 7.98298 13943 ft 175 kts 268°
2026-05-07 23:22 51.19916 7.96367 13934 ft 175 kts 281°
2026-05-07 23:22 51.20058 7.94456 13943 ft 174 kts 270°
2026-05-07 23:22 51.20033 7.92530 13944 ft 174 kts 269°
2026-05-07 23:22 51.19996 7.90605 13943 ft 174 kts 268°
2026-05-07 23:23 51.19957 7.88680 13943 ft 174 kts 268°
2026-05-07 23:23 51.19915 7.86752 13944 ft 174 kts 268°
2026-05-07 23:23 51.19872 7.84824 13941 ft 174 kts 268°
2026-05-07 23:23 51.19827 7.82896 13943 ft 174 kts 268°
2026-05-07 23:24 51.19781 7.80969 13941 ft 174 kts 268°
2026-05-07 23:24 51.19735 7.79041 13940 ft 174 kts 268°
2026-05-07 23:24 51.19689 7.77142 13943 ft 174 kts 268°
2026-05-07 23:24 51.19641 7.75215 13943 ft 174 kts 268°
2026-05-07 23:25 51.19593 7.73289 13947 ft 174 kts 268°
2026-05-07 23:25 51.19544 7.71360 13917 ft 176 kts 268°
2026-05-07 23:25 51.19504 7.69326 13641 ft 190 kts 268°
2026-05-07 23:25 51.19448 7.67170 13374 ft 199 kts 268°
2026-05-07 23:26 51.19386 7.64930 13108 ft 205 kts 268°
2026-05-07 23:26 51.19322 7.62633 12848 ft 209 kts 268°
2026-05-07 23:26 51.19258 7.60302 12598 ft 211 kts 268°
2026-05-07 23:26 51.19194 7.57954 12344 ft 213 kts 268°
2026-05-07 23:27 51.19058 7.53216 11840 ft 214 kts 267°
2026-05-07 23:27 51.18987 7.50845 11602 ft 214 kts 268°
2026-05-07 23:27 51.18918 7.48479 11368 ft 213 kts 268°
2026-05-07 23:28 51.18851 7.46118 11141 ft 213 kts 268°
2026-05-07 23:28 51.18784 7.43762 10913 ft 212 kts 268°
2026-05-07 23:28 51.18718 7.41414 10691 ft 212 kts 268°
2026-05-07 23:28 51.18654 7.39049 10356 ft 215 kts 268°
2026-05-07 23:29 51.18592 7.36643 9924 ft 219 kts 268°
2026-05-07 23:29 51.18531 7.34240 9608 ft 211 kts 268°
2026-05-07 23:29 51.18462 7.31944 9259 ft 207 kts 267°
2026-05-07 23:29 51.18383 7.29660 8959 ft 204 kts 267°
2026-05-07 23:30 51.18310 7.27425 8639 ft 200 kts 267°
2026-05-07 23:30 51.18242 7.25215 8292 ft 199 kts 267°
2026-05-07 23:30 51.18176 7.23024 7944 ft 197 kts 268°
2026-05-07 23:30 51.18112 7.20844 7620 ft 195 kts 268°
2026-05-07 23:31 51.18049 7.18713 7391 ft 190 kts 267°
2026-05-07 23:31 51.17986 7.16632 7180 ft 186 kts 267°
2026-05-07 23:31 51.17923 7.14582 6951 ft 185 kts 267°
2026-05-07 23:31 51.17861 7.12542 6717 ft 184 kts 268°
2026-05-07 23:32 51.17799 7.10513 6483 ft 183 kts 268°
2026-05-07 23:32 51.17738 7.08480 6255 ft 184 kts 267°
2026-05-07 23:32 51.17674 7.06444 6037 ft 184 kts 267°
2026-05-07 23:32 51.17610 7.04409 5825 ft 184 kts 267°
2026-05-07 23:33 51.17546 7.02378 5618 ft 183 kts 267°
2026-05-07 23:33 51.17482 7.00353 5413 ft 183 kts 267°
2026-05-07 23:33 51.17417 6.98337 5209 ft 182 kts 267°
2026-05-07 23:33 51.17353 6.96321 5007 ft 182 kts 267°
2026-05-07 23:34 51.17289 6.94340 4819 ft 182 kts 267°
2026-05-07 23:34 51.17224 6.92332 4618 ft 181 kts 267°
2026-05-07 23:34 51.17159 6.90326 4426 ft 181 kts 267°
2026-05-07 23:34 51.17093 6.88323 4240 ft 181 kts 267°
2026-05-07 23:35 51.17027 6.86324 4056 ft 181 kts 267°
2026-05-07 23:35 51.16962 6.84335 3876 ft 179 kts 267°
2026-05-07 23:35 51.16898 6.82371 3678 ft 177 kts 267°
2026-05-07 23:35 51.16833 6.80421 3471 ft 176 kts 267°
2026-05-07 23:36 51.16769 6.78473 3264 ft 176 kts 267°
2026-05-07 23:36 51.16704 6.76531 3080 ft 174 kts 267°
2026-05-07 23:36 51.16643 6.74630 2974 ft 170 kts 267°
2026-05-07 23:36 51.16428 6.72836 2926 ft 163 kts 244°
2026-05-07 23:37 51.15769 6.71416 2941 ft 157 kts 233°
2026-05-07 23:37 51.15094 6.70068 2926 ft 154 kts 234°
2026-05-07 23:37 51.14440 6.68730 2939 ft 153 kts 235°
2026-05-07 23:37 51.13790 6.67383 2943 ft 154 kts 235°
2026-05-07 23:38 51.13138 6.66028 2943 ft 154 kts 235°
2026-05-07 23:38 51.12484 6.64668 2943 ft 155 kts 235°
2026-05-07 23:38 51.11829 6.63304 2936 ft 155 kts 235°
2026-05-07 23:38 51.11172 6.61938 2939 ft 155 kts 235°
2026-05-07 23:39 51.10565 6.60521 2944 ft 155 kts 251°
2026-05-07 23:39 51.10546 6.58854 2948 ft 154 kts 290°
2026-05-07 23:39 51.11208 6.57537 2945 ft 156 kts 320°
2026-05-07 23:39 51.12096 6.56522 2938 ft 158 kts 322°
2026-05-07 23:40 51.12999 6.55524 2942 ft 158 kts 322°
2026-05-07 23:40 51.13904 6.54530 2940 ft 158 kts 322°
2026-05-07 23:40 51.14813 6.53535 2937 ft 159 kts 322°
2026-05-07 23:40 51.15839 6.52978 2941 ft 159 kts 357°
2026-05-07 23:41 51.16877 6.53571 2933 ft 164 kts 35°
2026-05-07 23:41 51.17523 6.55071 2945 ft 168 kts 64°
2026-05-07 23:41 51.18322 6.56394 2948 ft 169 kts 22°
2026-05-07 23:41 51.19444 6.56682 2951 ft 161 kts 358°
2026-05-07 23:42 51.20466 6.57287 2875 ft 161 kts 36°
2026-05-07 23:42 51.21079 6.58822 2696 ft 171 kts 68°
2026-05-07 23:42 51.21564 6.60600 2468 ft 177 kts 56°
2026-05-07 23:42 51.22336 6.62132 2226 ft 178 kts 57°
2026-05-07 23:43 51.23048 6.63757 1984 ft 180 kts 51°
2026-05-07 23:43 51.23749 6.65269 1680 ft 159 kts 54°
2026-05-07 23:43 51.24234 6.66757 1414 ft 145 kts 65°
2026-05-07 23:43 51.24659 6.68188 1262 ft 140 kts 58°
2026-05-07 23:44 51.25192 6.69476 1088 ft 138 kts 52°
2026-05-07 23:44 51.25763 6.70646 953 ft 130 kts 42°
2026-05-07 23:44 51.26360 6.71689 815 ft 127 kts 51°
2026-05-07 23:44 51.26860 6.72889 595 ft 130 kts 51°
2026-05-07 23:45 51.27409 6.74022 422 ft 127 kts 50°
2026-05-07 23:45 51.27931 6.75128 269 ft 123 kts 47°
2026-05-07 23:45 51.28443 6.76190 136 ft 115 kts 50°
2026-05-07 23:45 51.28890 6.77114 126 ft 94 kts 50°
2026-05-07 23:46 51.29219 6.77820 132 ft 64 kts 51°
2026-05-07 23:46 51.29301 6.78102 137 ft 14 kts 145°
2026-05-07 23:46 51.29244 6.78200 133 ft 13 kts 151°
2026-05-07 23:46 51.29164 6.78191 129 ft 13 kts 220°
2026-05-07 23:47 51.29105 6.78076 128 ft 14 kts 234°
2026-05-07 23:47 51.29047 6.77951 126 ft 15 kts 233°
2026-05-07 23:47 51.28965 6.77772 125 ft 24 kts 234°
2026-05-07 23:47 51.28855 6.77534 125 ft 29 kts 233°
2026-05-07 23:48 51.28726 6.77273 123 ft 30 kts 233°
2026-05-07 23:48 51.28602 6.77013 125 ft 29 kts 233°
2026-05-07 23:48 51.28478 6.76754 119 ft 29 kts 233°
2026-05-07 23:48 51.28354 6.76495 121 ft 29 kts 232°
2026-05-07 23:49 51.28236 6.76245 123 ft 28 kts 233°
2026-05-07 23:49 51.28122 6.76001 125 ft 27 kts 233°
2026-05-07 23:49 51.28007 6.75761 125 ft 27 kts 232°
2026-05-07 23:49 51.27893 6.75520 123 ft 26 kts 230°
2026-05-07 23:50 51.27799 6.75338 120 ft 14 kts 233°
2026-05-07 23:50 51.27748 6.75229 118 ft 9 kts 230°
2026-05-07 23:50 51.27679 6.75186 117 ft 12 kts 185°
2026-05-07 23:50 51.27600 6.75185 116 ft 11 kts 178°
2026-05-07 23:51 51.27528 6.75206 117 ft 10 kts 157°
2026-05-07 23:51 51.27469 6.75260 118 ft 10 kts 162°
2026-05-07 23:51 51.27453 6.75288 117 ft 0 kts 77°
2026-05-07 23:51 51.27453 6.75289 117 ft 0 kts 77°